1514325600.86,9936,9.44,72610.0,-8.61,-33.03,-33.77,0,*69
1514325602.14,9937,9.44,72606.0,-8.61,-32.97,-33.61,0,*63
1514325603.42,9938,9.44,72604.8,-8.61,-32.79,-33.73,0,*6F
1514325604.71,9939,9.44,72604.0,-8.61,-32.85,-33.73,0,*6D
1514325605.99,9940,9.44,72608.0,-8.61,-32.79,-33.61,0,*63
1514325607.24,9941,9.44,72608.8,-8.61,-32.85,-33.55,0,*66
1514325608.52,9942,9.44,72606.3,-8.61,-32.85,-33.73,0,*61
1514325609.8,9943,9.44,72610.3,-8.61,-32.97,-33.61,0,*60
1514325611.05,9944,9.44,72608.3,-8.61,-32.85,-33.55,0,*63
1514325612.33,9945,9.44,72610.0,-8.61,-32.97,-33.73,0,*65
1514325613.61,9946,9.44,72610.8,-8.61,-32.97,-33.73,0,*66
1514325614.89,9947,9.44,72610.8,-8.61,-32.63,-33.31,0,*6A
1514325616.13,9948,9.44,72612.8,-8.61,-32.51,-33.21,0,*65
1514325617.38,9949,9.44,72612.0,-8.59,-32.79,-33.49,0,*6B
1514325618.66,9950,9.44,72608.5,-8.61,-32.85,-33.73,0,*62
1514325619.88,9951,9.44,72608.0,-8.59,-32.79,-33.55,0,*6F
1514325621.14,9952,9.44,72610.5,-8.61,-32.79,-33.55,0,*67
1514325622.34,9953,9.44,72610.0,-8.59,-32.91,-33.67,0,*6A
1514325623.61,9954,9.44,72608.0,-8.61,-32.97,-33.73,0,*65
1514325624.89,9955,9.44,72608.0,-8.61,-32.85,-33.61,0,*64
1514325626.15,9956,9.44,72606.5,-8.61,-32.79,-33.55,0,*63
1514325627.43,9957,9.44,72612.3,-8.61,-32.85,-33.73,0,*65
1514325628.66,9958,9.44,72604.8,-8.63,-33.03,-33.77,0,*63
1514325629.89,9959,9.44,72610.0,-8.63,-33.03,-33.73,0,*66
1514325631.14,9960,9.44,72610.5,-8.61,-33.03,-33.77,0,*6A
1514325632.4,9961,9.44,72608.8,-8.61,-32.85,-33.55,0,*64
1514325633.68,9962,9.44,72606.5,-8.61,-32.97,-33.73,0,*60
1514325634.93,9963,9.44,72604.8,-8.61,-33.03,-33.73,0,*6D
1514325636.21,9964,9.44,72604.8,-8.61,-32.97,-33.61,0,*65
1514325637.49,9965,9.44,72608.0,-8.61,-32.79,-33.49,0,*6E
1514325638.75,9966,9.44,72606.5,-8.61,-32.79,-33.55,0,*60
1514325640.0,9967,9.44,72604.8,-8.61,-32.79,-33.55,0,*61
1514325641.26,9968,9.44,72608.8,-8.61,-33.03,-33.77,0,*62
1514325642.51,9969,9.44,72606.8,-8.61,-33.03,-33.89,0,*62
1514325643.76,9970,9.44,72608.3,-8.63,-32.85,-33.61,0,*61
1514325644.99,9971,9.44,72610.0,-8.63,-32.79,-33.55,0,*64
1514325646.22,9972,9.44,72608.3,-8.63,-32.79,-33.55,0,*67
1514325647.47,9973,9.44,72606.5,-8.63,-32.85,-33.73,0,*61
1514325648.72,9974,9.44,72606.3,-8.63,-32.97,-33.61,0,*66
1514325649.97,9975,9.44,72606.3,-8.63,-32.85,-33.73,0,*67
1514325651.19,9976,9.44,72604.0,-8.63,-32.91,-33.77,0,*65
1514325652.44,9977,9.44,72606.0,-8.63,-32.79,-33.61,0,*65
1514325653.72,9978,9.44,72606.5,-8.65,-32.85,-33.61,0,*6F
1514325654.95,9979,9.44,72606.0,-8.63,-32.79,-33.55,0,*6C
1514325656.2,9980,9.44,72608.0,-8.63,-32.79,-33.49,0,*67
1514325657.41,9981,9.44,72608.3,-8.63,-32.69,-33.55,0,*6A
1514325658.64,9982,9.44,72610.3,-8.63,-32.69,-33.73,0,*6D
1514325659.87,9983,9.44,72606.5,-8.63,-32.69,-33.49,0,*65
1514325661.1,9984,9.44,72610.0,-8.63,-32.79,-33.55,0,*6E
1514325662.33,9985,9.44,72608.0,-8.63,-32.79,-33.55,0,*6F
1514325663.56,9986,9.44,72608.3,-8.63,-32.79,-33.55,0,*6C
1514325664.79,9987,9.44,72610.8,-8.63,-32.69,-33.49,0,*61
1514325665.99,9988,9.44,72606.0,-8.63,-32.69,-33.55,0,*63
1514325667.27,9989,9.44,72610.8,-8.65,-32.85,-33.61,0,*61
1514325668.52,9990,9.44,72604.3,-8.63,-32.79,-33.61,0,*6C
1514325669.77,9991,9.44,72604.8,-8.63,-32.79,-33.61,0,*6D
1514325671.02,9992,9.44,72610.3,-8.63,-32.97,-33.73,0,*6D
1514325672.27,9993,9.44,72606.8,-8.63,-32.85,-33.61,0,*6C
1514325673.5,9994,9.44,72606.8,-8.63,-32.69,-33.49,0,*63
1514325674.75,9995,9.44,72604.3,-8.63,-32.97,-33.77,0,*6E
1514325676.0,9996,9.44,72604.5,-8.63,-32.85,-33.73,0,*6A
1514325677.28,9997,9.44,72606.5,-8.65,-32.85,-33.77,0,*69
1514325678.53,9998,9.44,72608.3,-8.63,-32.97,-33.73,0,*67
1514325679.78,9999,9.44,72604.5,-8.63,-32.79,-33.77,0,*62
1514325681.04,10000,9.44,72608.3,-8.65,-33.03,-33.77,0,*59
1514325682.3,10001,9.44,72606.5,-8.63,-32.85,-33.73,0,*55
1514325683.56,10002,9.44,72604.3,-8.63,-32.85,-33.77,0,*52
1514325684.82,10003,9.44,72606.5,-8.63,-32.79,-33.61,0,*57
1514325686.08,10004,9.44,72602.8,-8.65,-32.85,-33.67,0,*53
1514325687.34,10005,9.44,72604.8,-8.63,-32.79,-33.73,0,*52
1514325688.6,10006,9.44,72604.0,-8.65,-32.85,-33.83,0,*5B
1514325689.83,10007,9.44,72606.3,-8.65,-33.03,-33.83,0,*55
1514325691.06,10008,9.44,72604.8,-8.65,-33.03,-33.67,0,*50
1514325692.32,10009,9.44,72604.3,-8.63,-32.79,-33.61,0,*5D
1514325693.59,10010,9.44,72606.0,-8.65,-32.69,-33.43,0,*52
1514325694.86,10011,9.44,72604.3,-8.65,-32.69,-33.43,0,*53
1514325696.09,10012,9.44,72604.0,-8.63,-32.75,-33.55,0,*5C
1514325697.3,10013,9.44,72604.8,-8.63,-32.69,-33.55,0,*50
1514325698.58,10014,9.44,72606.0,-8.65,-32.85,-33.61,0,*54
1514325699.84,10015,9.44,72606.8,-8.63,-32.85,-33.77,0,*54
1514325701.1,10016,9.44,72606.0,-8.63,-32.85,-33.61,0,*50
1514325702.32,10017,9.44,72606.3,-8.65,-32.91,-33.83,0,*5E
1514325703.58,10018,9.44,72602.5,-8.63,-32.97,-33.77,0,*5A
1514325704.81,10019,9.44,72602.8,-8.65,-32.91,-33.83,0,*50
1514325706.06,10020,9.44,72608.3,-8.65,-32.91,-33.77,0,*51
1514325707.29,10021,9.44,72608.0,-8.65,-32.91,-33.83,0,*5B
1514325708.55,10022,9.44,72610.5,-8.65,-32.85,-33.67,0,*57
1514325709.79,10023,9.44,72610.8,-8.67,-32.69,-33.61,0,*50
1514325711.04,10024,9.44,72604.8,-8.65,-32.91,-33.77,0,*55
1514325712.27,10025,9.44,72604.3,-8.65,-32.91,-33.67,0,*55
1514325713.5,10026,9.44,72610.8,-8.67,-32.91,-33.77,0,*55
1514325714.73,10027,9.44,72606.0,-8.67,-32.91,-33.77,0,*54
1514325715.97,10028,9.44,72606.3,-8.67,-32.69,-33.61,0,*5B
1514325717.23,10029,9.44,72604.5,-8.67,-32.75,-33.61,0,*57
1514325718.49,10030,9.44,72610.5,-8.67,-32.75,-33.61,0,*5F
1514325719.69,10031,9.44,72606.8,-8.67,-32.91,-33.83,0,*58
1514325720.95,10032,9.44,72606.3,-8.67,-32.85,-33.61,0,*52
1514325722.21,10033,9.44,72608.3,-8.67,-32.75,-33.61,0,*5C
1514325723.47,10034,9.44,72604.8,-8.67,-32.75,-33.77,0,*5C
1514325724.73,10035,9.44,72604.8,-8.67,-32.75,-33.61,0,*5A
1514325725.99,10036,9.44,72608.3,-8.67,-32.75,-33.77,0,*5E
1514325727.25,10037,9.44,72606.0,-8.67,-32.75,-33.61,0,*58
1514325728.51,10038,9.44,72608.0,-8.67,-32.85,-33.77,0,*5F
1514325729.75,10039,9.44,72606.3,-8.67,-32.85,-33.67,0,*5F
1514325731.01,10040,9.44,72604.8,-8.67,-32.75,-33.77,0,*5F
1514325732.3,10041,9.44,72604.8,-8.69,-32.97,-34.01,0,*5A
1514325733.53,10042,9.44,72606.3,-8.69,-32.91,-33.83,0,*52
1514325734.78,10043,9.44,72608.5,-8.69,-32.91,-33.73,0,*5C
1514325736.02,10044,9.44,72604.3,-8.67,-32.79,-33.55,0,*57
1514325737.3,10045,9.44,72610.5,-8.69,-32.63,-33.61,0,*54
1514325738.57,10046,9.44,72606.0,-8.67,-32.75,-33.77,0,*59
1514325739.8,10047,9.44,72606.8,-8.69,-32.91,-33.67,0,*5D
1514325741.06,10048,9.44,72606.5,-8.69,-32.79,-33.83,0,*5E
1514325742.35,10049,9.44,72606.0,-8.69,-32.79,-33.73,0,*50
1514325743.62,10050,9.44,72602.8,-8.69,-32.75,-33.67,0,*51
1514325744.86,10051,9.44,72606.8,-8.67,-32.63,-33.55,0,*58
1514325746.15,10052,9.44,72606.8,-8.69,-32.79,-33.73,0,*5A
1514325747.44,10053,9.44,72604.3,-8.69,-32.79,-33.73,0,*5B
1514325748.67,10054,9.44,72602.8,-8.67,-32.85,-33.67,0,*54
1514325749.91,10055,9.44,72606.3,-8.71,-32.79,-33.83,0,*5B
1514325751.17,10056,9.44,72608.3,-8.69,-32.79,-33.83,0,*51
1514325752.44,10057,9.44,72606.8,-8.69,-32.79,-33.83,0,*50
1514325753.7,10058,9.44,72604.3,-8.69,-32.75,-33.67,0,*59
1514325754.97,10059,9.44,72606.8,-8.71,-32.45,-33.43,0,*54
1514325756.2,10060,9.44,72604.5,-8.71,-32.63,-33.67,0,*5C
1514325757.49,10061,9.44,72606.5,-8.69,-32.79,-33.73,0,*5A
1514325758.76,10062,9.44,72604.3,-8.69,-32.57,-33.49,0,*5C
1514325760.05,10063,9.44,72604.0,-8.69,-32.75,-33.73,0,*54
1514325761.31,10064,9.44,72606.0,-8.69,-32.57,-33.49,0,*5A
1514325762.58,10065,9.44,72604.3,-8.71,-32.45,-33.43,0,*5B
1514325763.82,10066,9.44,72606.0,-8.71,-32.39,-33.43,0,*53
1514325765.07,10067,9.44,72606.5,-8.71,-32.63,-33.61,0,*5D
1514325766.34,10068,9.44,72604.5,-8.71,-32.79,-33.73,0,*5A
1514325767.58,10069,9.44,72604.0,-8.71,-32.79,-33.67,0,*5E
1514325768.82,10070,9.44,72602.0,-8.71,-32.79,-33.67,0,*56
1514325770.05,10071,9.44,72606.5,-8.71,-32.63,-33.67,0,*5C
1514325771.32,10072,9.44,72602.8,-8.69,-32.75,-33.83,0,*5B
1514325772.56,10073,9.44,72602.5,-8.71,-32.75,-33.67,0,*59
1514325773.82,10074,9.44,72602.5,-8.71,-32.45,-33.49,0,*51
1514325775.07,10075,9.44,72604.8,-8.71,-32.63,-33.61,0,*5E
1514325776.31,10076,9.44,72604.5,-8.71,-32.79,-33.83,0,*5A
1514325777.57,10077,9.44,72606.5,-8.71,-32.79,-33.73,0,*54
1514325778.8,10078,9.44,72604.8,-8.71,-32.57,-33.61,0,*54
1514325780.04,10079,9.44,72604.8,-8.71,-32.79,-33.83,0,*55
1514325781.33,10080,9.44,72606.5,-8.73,-32.79,-33.77,0,*5A
1514325782.59,10081,9.44,72606.0,-8.71,-32.75,-33.73,0,*51
1514325783.83,10082,9.44,72606.3,-8.71,-32.75,-33.67,0,*57
1514325785.08,10083,9.44,72602.3,-8.73,-32.69,-33.67,0,*59
1514325786.32,10084,9.44,72604.8,-8.71,-32.63,-33.67,0,*56
1514325787.61,10085,9.44,72604.3,-8.73,-32.79,-33.73,0,*5B
1514325788.84,10086,9.44,72604.3,-8.71,-32.79,-33.83,0,*55
1514325790.13,10087,9.44,72604.8,-8.73,-32.79,-33.77,0,*5D
1514325791.37,10088,9.44,72600.8,-8.71,-32.63,-33.67,0,*5A
1514325792.64,10089,9.44,72608.0,-8.73,-32.69,-33.77,0,*52
1514325793.87,10090,9.44,72604.8,-8.71,-32.75,-33.83,0,*5E
1514325795.14,10091,9.44,72606.3,-8.73,-32.69,-33.73,0,*5F
1514325796.38,10092,9.44,72606.3,-8.73,-32.69,-33.67,0,*59
1514325797.64,10093,9.44,72604.0,-8.75,-32.85,-33.77,0,*5D
1514325798.93,10094,9.44,72604.3,-8.73,-32.63,-33.73,0,*50
1514325800.2,10095,9.44,72606.3,-8.73,-32.69,-33.73,0,*5B
1514325801.46,10096,9.44,72608.3,-8.75,-32.79,-33.73,0,*5F
1514325802.7,10097,9.44,72606.3,-8.75,-32.69,-33.77,0,*5B
1514325803.96,10098,9.44,72606.8,-8.75,-32.75,-33.73,0,*5D
1514325805.2,10099,9.44,72604.3,-8.75,-32.51,-33.73,0,*5A
1514325806.47,10100,9.44,72604.8,-8.77,-32.75,-33.83,0,*50
1514325807.73,10101,9.44,72604.5,-8.75,-32.79,-33.77,0,*54
1514325808.99,10102,9.44,72604.5,-8.77,-32.75,-33.95,0,*55
1514325810.26,10103,9.44,72604.5,-8.77,-32.75,-33.83,0,*53
1514325811.55,10104,9.44,72604.8,-8.77,-32.75,-33.77,0,*5F
1514325812.79,10105,9.44,72600.8,-8.75,-32.63,-33.67,0,*5A
1514325814.03,10106,9.44,72604.5,-8.75,-32.63,-33.67,0,*59
1514325815.26,10107,9.44,72604.0,-8.75,-32.63,-33.67,0,*58
1514325816.52,10108,9.44,72606.3,-8.75,-32.45,-33.49,0,*5F
1514325817.79,10109,9.44,72604.0,-8.77,-32.69,-33.77,0,*5F
1514325819.06,10110,9.44,72606.3,-8.77,-32.69,-33.73,0,*53
1514325820.32,10111,9.44,72604.5,-8.75,-32.29,-33.49,0,*5D
1514325821.58,10112,9.44,72606.0,-8.77,-32.35,-33.43,0,*5B
1514325822.79,10113,9.44,72600.5,-8.75,-32.39,-33.55,0,*53
1514325824.05,10114,9.44,72600.8,-8.77,-32.45,-33.55,0,*5D
1514325825.34,10115,9.44,72606.3,-8.77,-32.45,-33.61,0,*5B
1514325826.6,10116,9.44,72604.8,-8.77,-32.45,-33.55,0,*5F
1514325827.83,10117,9.44,72602.8,-8.77,-32.35,-33.55,0,*59
1514325829.12,10118,9.44,72606.3,-8.77,-32.45,-33.43,0,*56
1514325830.39,10119,9.44,72602.0,-8.77,-32.57,-33.61,0,*54
1514325831.65,10120,9.44,72602.5,-8.77,-32.45,-33.55,0,*5A
1514325832.91,10121,9.44,72604.5,-8.77,-32.57,-33.73,0,*5C
1514325834.2,10122,9.44,72606.5,-8.77,-32.29,-33.43,0,*55
1514325835.47,10123,9.44,72602.0,-8.77,-32.51,-33.61,0,*5B
1514325836.73,10124,9.44,72602.3,-8.77,-32.57,-33.61,0,*5A
1514325837.94,10125,9.44,72604.5,-8.75,-32.51,-33.67,0,*59
1514325839.22,10126,9.44,72600.5,-8.77,-32.45,-33.61,0,*5B
1514325840.49,10127,9.44,72604.3,-8.77,-32.57,-33.73,0,*5A
1514325841.78,10128,9.44,72600.3,-8.77,-32.45,-33.73,0,*56
1514325843.04,10129,9.44,72604.5,-8.77,-32.45,-33.55,0,*53
1514325844.3,10130,9.44,72604.5,-8.77,-32.51,-33.61,0,*59
1514325845.57,10131,9.44,72606.8,-8.77,-32.45,-33.55,0,*5A
1514325846.8,10132,9.44,72606.0,-8.77,-32.35,-33.55,0,*5E
1514325848.06,10133,9.44,72606.0,-8.77,-32.35,-33.43,0,*58
1514325849.3,10134,9.44,72602.0,-8.81,-32.51,-33.67,0,*52
1514325850.56,10135,9.44,72606.3,-8.81,-32.57,-33.61,0,*53
1514325851.79,10136,9.44,72602.0,-8.81,-32.51,-33.67,0,*50
1514325853.05,10137,9.44,72606.3,-8.81,-32.51,-33.61,0,*57
1514325854.3,10138,9.44,72606.3,-8.81,-32.39,-33.61,0,*56
1514325855.56,10139,9.44,72600.8,-8.81,-32.57,-33.61,0,*5F
1514325856.81,10140,9.44,72606.0,-8.81,-32.35,-33.61,0,*55
1514325858.06,10141,9.44,72602.3,-8.81,-32.57,-33.61,0,*50
1514325859.32,10142,9.44,72602.0,-8.81,-32.39,-33.61,0,*5B
1514325860.58,10143,9.44,72606.8,-8.81,-32.39,-33.49,0,*50
1514325861.83,10144,9.44,72600.3,-8.81,-32.39,-33.61,0,*5D
1514325863.09,10145,9.44,72604.3,-8.81,-32.63,-33.67,0,*55
1514325864.35,10146,9.44,72606.0,-8.81,-32.39,-33.61,0,*5F
1514325865.61,10147,9.44,72604.0,-8.81,-32.23,-33.43,0,*55
1514325866.84,10148,9.44,72604.3,-8.83,-32.51,-33.61,0,*5D
1514325868.1,10149,9.44,72600.3,-8.81,-32.39,-33.61,0,*50
1514325869.35,10150,9.44,72606.8,-8.81,-32.35,-33.49,0,*5E
1514325870.61,10151,9.44,72606.0,-8.81,-32.35,-33.43,0,*55
1514325871.84,10152,9.44,72602.8,-8.81,-32.51,-33.67,0,*52
1514325873.06,10153,9.44,72604.0,-8.83,-32.57,-33.67,0,*57
1514325874.29,10154,9.44,72604.3,-8.77,-32.51,-33.55,0,*5C
1514325875.55,10155,9.44,72604.3,-8.81,-32.51,-33.61,0,*53
1514325876.81,10156,9.44,72602.8,-8.81,-32.57,-33.61,0,*56
1514325878.06,10157,9.44,72600.0,-8.81,-32.51,-33.61,0,*51
1514325879.31,10158,9.44,72604.0,-8.81,-32.35,-33.49,0,*56
1514325880.57,10159,9.44,72602.8,-8.81,-32.51,-33.61,0,*5F
1514325881.82,10160,9.44,72600.0,-8.81,-32.39,-33.61,0,*5B
1514325883.05,10161,9.44,72606.5,-8.83,-32.35,-33.49,0,*5E
1514325884.31,10162,9.44,72602.5,-8.81,-32.23,-33.43,0,*52
1514325885.54,10163,9.44,72604.8,-8.83,-32.35,-33.49,0,*5C
1514325886.8,10164,9.44,72602.3,-8.81,-32.23,-33.43,0,*54
1514325888.04,10165,9.44,72600.8,-8.83,-32.23,-33.43,0,*57
1514325889.29,10166,9.44,72606.5,-8.81,-32.23,-33.49,0,*5C
1514325890.58,10167,9.44,72602.3,-8.81,-32.07,-33.31,0,*54
1514325891.84,10168,9.44,72604.5,-8.81,-32.23,-33.49,0,*52
1514325893.1,10169,9.44,72600.5,-8.81,-32.39,-33.49,0,*58
1514325894.36,10170,9.44,72606.0,-8.81,-32.23,-33.43,0,*51
1514325895.6,10171,9.44,72602.3,-8.83,-32.23,-33.43,0,*52
1514325896.86,10172,9.44,72600.8,-8.83,-32.07,-33.43,0,*57
1514325898.13,10173,9.44,72600.5,-8.81,-32.23,-33.43,0,*52
1514325899.42,10174,9.44,72602.3,-8.81,-32.07,-33.27,0,*51
1514325900.71,10175,9.44,72606.0,-8.81,-32.07,-33.31,0,*57
1514325901.97,10176,9.44,72604.5,-8.81,-32.23,-33.31,0,*52
1514325903.22,10177,9.44,72602.0,-8.81,-32.35,-33.43,0,*51
1514325904.48,10178,9.44,72602.0,-8.81,-32.35,-33.49,0,*54
1514325905.74,10179,9.44,72604.8,-8.81,-32.23,-33.43,0,*58
1514325907.03,10180,9.44,72604.3,-8.81,-32.19,-33.27,0,*55
1514325908.28,10181,9.44,72604.3,-8.81,-32.35,-33.49,0,*52
1514325909.53,10182,9.44,72600.3,-8.81,-32.23,-33.49,0,*56
1514325910.77,10183,9.44,72602.5,-8.83,-32.23,-33.43,0,*5F
1514325912.02,10184,9.44,72604.3,-8.81,-32.35,-33.49,0,*57
1514325913.26,10185,9.44,72602.5,-8.83,-32.23,-33.43,0,*59
1514325914.52,10186,9.44,72606.0,-8.81,-32.23,-33.43,0,*58
1514325915.79,10187,9.44,72604.3,-8.83,-32.07,-33.31,0,*58
1514325917.04,10188,9.44,72604.8,-8.81,-32.23,-33.31,0,*53
1514325918.3,10189,9.44,72602.0,-8.81,-32.23,-33.31,0,*52
1514325919.56,10190,9.44,72602.0,-8.81,-32.35,-33.43,0,*58
1514325920.82,10191,9.44,72602.3,-8.81,-32.23,-33.43,0,*5E
1514325922.08,10192,9.44,72606.8,-8.81,-32.23,-33.31,0,*58
1514325923.34,10193,9.44,72604.0,-8.81,-32.23,-33.43,0,*5C
1514325924.6,10194,9.44,72600.3,-8.81,-32.23,-33.43,0,*5B
1514325925.86,10195,9.44,72600.8,-8.81,-32.23,-33.43,0,*5A
1514325927.12,10196,9.44,72602.8,-8.81,-32.23,-33.43,0,*59
1514325928.38,10197,9.44,72602.0,-8.81,-32.23,-33.43,0,*58
1514325929.67,10198,9.44,72600.8,-8.81,-32.19,-33.31,0,*5B
1514325930.91,10199,9.44,72602.0,-8.77,-32.13,-33.21,0,*58
1514325932.15,10200,9.44,72604.3,-8.77,-32.01,-33.21,0,*58
1514325933.4,10201,9.44,72602.0,-8.77,-32.01,-33.21,0,*59
1514325934.67,10202,9.44,72602.0,-8.77,-32.13,-33.27,0,*5F
1514325935.96,10203,9.44,72600.0,-8.77,-32.19,-33.43,0,*56
1514325937.23,10204,9.44,72602.8,-8.77,-32.19,-33.37,0,*52
1514325938.52,10205,9.44,72602.3,-8.81,-32.19,-33.27,0,*5B
1514325939.81,10206,9.44,72602.8,-8.81,-32.19,-33.27,0,*58
1514325941.07,10207,9.44,72600.3,-8.81,-32.35,-33.43,0,*55
1514325942.32,10208,9.44,72600.8,-8.81,-32.35,-33.49,0,*50
1514325943.58,10209,9.44,72606.5,-8.81,-32.39,-33.49,0,*5D
1514325944.85,10210,9.44,72600.0,-8.77,-32.29,-33.37,0,*54
1514325946.1,10211,9.44,72604.0,-8.81,-32.23,-33.31,0,*50
1514325947.36,10212,9.44,72604.8,-8.81,-32.35,-33.49,0,*5B
1514325948.61,10213,9.44,72602.3,-8.81,-32.51,-33.49,0,*58
1514325949.87,10214,9.44,72602.3,-8.81,-32.35,-33.31,0,*52
1514325951.13,10215,9.44,72600.3,-8.81,-32.39,-33.43,0,*5A
1514325952.39,10216,9.44,72602.0,-8.81,-32.35,-33.31,0,*50
1514325953.65,10217,9.44,72600.8,-8.81,-32.35,-33.43,0,*54
1514325954.9,10218,9.44,72602.3,-8.81,-32.35,-33.31,0,*5E
1514325956.16,10219,9.44,72600.8,-8.81,-32.07,-33.15,0,*58
1514325957.45,10220,9.44,72604.3,-8.81,-32.19,-33.27,0,*5C
1514325958.72,10221,9.44,72606.8,-8.83,-32.19,-33.27,0,*5F
1514325959.98,10222,9.44,72602.5,-8.81,-32.23,-33.27,0,*57
1514325961.23,10223,9.44,72598.0,-8.81,-32.35,-33.31,0,*56
1514325962.49,10224,9.44,72604.5,-8.81,-32.35,-33.49,0,*5E
1514325963.78,10225,9.44,72602.5,-8.81,-32.19,-33.27,0,*59
1514325965.07,10226,9.44,72604.3,-8.77,-32.29,-33.27,0,*50
1514325966.34,10227,9.44,72600.8,-8.77,-32.19,-33.37,0,*53
1514325967.6,10228,9.44,72602.0,-8.77,-32.29,-33.21,0,*58
1514325968.84,10229,9.44,72600.3,-8.77,-32.01,-33.21,0,*53
1514325970.11,10230,9.44,72602.5,-8.77,-32.19,-33.21,0,*52
1514325971.37,10231,9.44,72600.5,-8.77,-32.19,-33.21,0,*53
1514325972.64,10232,9.44,72606.0,-8.77,-32.19,-33.21,0,*50
1514325973.9,10233,9.44,72600.8,-8.77,-32.29,-33.37,0,*55
1514325975.2,10234,9.44,72602.8,-8.77,-32.45,-33.43,0,*5B
1514325976.49,10235,9.44,72600.5,-8.77,-32.19,-33.27,0,*51
1514325977.7,10236,9.44,72604.8,-8.75,-32.13,-33.15,0,*5B
1514325978.96,10237,9.44,72600.0,-8.81,-32.35,-33.31,0,*53
1514325980.22,10238,9.44,72600.0,-8.81,-32.23,-33.27,0,*5C
1514325981.49,10239,9.44,72604.8,-8.77,-31.95,-32.91,0,*56
1514325982.76,10240,9.44,72602.5,-8.77,-31.95,-33.03,0,*52
1514325984.04,10241,9.44,72602.0,-8.81,-32.19,-33.09,0,*57
1514325985.34,10242,9.44,72600.0,-8.77,-31.85,-32.85,0,*5E
1514325986.58,10243,9.44,72600.0,-8.75,-32.07,-33.03,0,*5B
1514325987.84,10244,9.44,72602.8,-8.77,-32.19,-33.21,0,*51
1514325989.09,10245,9.44,72606.3,-8.77,-32.01,-33.03,0,*59
1514325990.38,10246,9.44,72604.3,-8.77,-32.19,-33.09,0,*59
1514325991.67,10247,9.44,72602.0,-8.77,-32.19,-33.09,0,*58
1514325992.93,10248,9.44,72600.0,-8.75,-32.07,-32.97,0,*5C
1514325994.21,10249,9.44,72600.0,-8.77,-32.01,-33.09,0,*5F
1514325995.47,10250,9.44,72602.5,-8.75,-32.07,-32.97,0,*55
1514325996.7,10251,9.44,72602.3,-8.75,-32.29,-33.21,0,*54
1514325997.9,10252,9.44,72602.8,-8.75,-32.23,-33.21,0,*5D
1514325999.11,10253,9.44,72600.0,-8.75,-32.13,-33.03,0,*5F
1514326000.32,10254,9.44,72602.0,-8.75,-32.23,-33.15,0,*5C
1514326001.53,10255,9.44,72606.3,-8.75,-32.13,-33.15,0,*5E
1514326002.76,10256,9.44,72602.3,-8.75,-32.13,-32.97,0,*56
1514326004.02,10257,9.44,72598.8,-8.75,-32.07,-32.85,0,*51
1514326005.26,10258,9.44,72600.3,-8.75,-32.07,-33.03,0,*51
1514326006.47,10259,9.44,72600.0,-8.75,-32.13,-33.03,0,*55
1514326007.68,10260,9.44,72602.0,-8.75,-32.39,-33.21,0,*57
1514326008.92,10261,9.44,72604.0,-8.75,-32.51,-33.31,0,*59
1514326010.16,10262,9.44,72604.3,-8.75,-32.39,-33.31,0,*54
1514326011.36,10263,9.44,72602.8,-8.75,-32.39,-33.15,0,*53
1514326012.6,10264,9.44,72600.5,-8.75,-32.39,-33.31,0,*52
1514326013.83,10265,9.44,72600.5,-8.75,-32.29,-33.21,0,*53
1514326015.06,10266,9.44,72600.5,-8.73,-32.23,-33.15,0,*5B
1514326016.27,10267,9.44,72598.5,-8.75,-32.39,-33.21,0,*50
1514326017.51,10268,9.44,72600.5,-8.75,-32.39,-33.31,0,*5E
1514326018.8,10269,9.44,72600.3,-8.77,-32.45,-33.27,0,*51
1514326020.01,10270,9.44,72600.8,-8.75,-32.39,-33.21,0,*56
1514326021.24,10271,9.44,72600.8,-8.75,-32.29,-33.03,0,*56
1514326022.47,10272,9.44,72602.8,-8.75,-32.29,-33.03,0,*55
1514326023.68,10273,9.44,72600.8,-8.75,-32.13,-33.03,0,*5D
1514326024.95,10274,9.44,72600.8,-8.77,-32.19,-33.03,0,*52
1514326026.18,10275,9.44,72602.0,-8.75,-32.13,-32.97,0,*57
1514326027.45,10276,9.44,72598.5,-8.75,-32.07,-32.79,0,*51
1514326028.71,10277,9.44,72600.5,-8.75,-32.07,-32.85,0,*53
1514326029.98,10278,9.44,72602.8,-8.73,-32.13,-32.85,0,*5F
1514326031.23,10279,9.44,72600.8,-8.73,-32.29,-33.15,0,*5F
1514326032.51,10280,9.44,72602.3,-8.73,-32.29,-32.97,0,*52
1514326033.77,10281,9.44,72600.5,-8.73,-32.29,-33.03,0,*5F
1514326035.03,10282,9.44,72602.5,-8.73,-32.23,-32.97,0,*5A
1514326036.28,10283,9.44,72602.8,-8.73,-32.23,-32.97,0,*5B
1514326037.54,10284,9.44,72598.8,-8.73,-32.13,-32.97,0,*5F
1514326038.8,10285,9.44,72602.0,-8.73,-32.23,-32.97,0,*5D
1514326040.07,10286,9.44,72602.0,-8.73,-32.29,-32.97,0,*54
1514326041.3,10287,9.44,72598.8,-8.71,-32.35,-32.97,0,*5A
1514326042.54,10288,9.44,72600.3,-8.73,-32.39,-33.15,0,*50
1514326043.77,10289,9.44,72600.5,-8.73,-32.39,-33.03,0,*56
1514326045.07,10290,9.44,72602.8,-8.73,-32.07,-32.79,0,*5F
1514326046.3,10291,9.44,72600.0,-8.73,-32.39,-33.03,0,*5F
1514326047.54,10292,9.44,72598.5,-8.73,-32.51,-33.21,0,*52
1514326048.75,10293,9.44,72600.5,-8.71,-32.23,-32.91,0,*5E
1514326050.01,10294,9.44,72602.5,-8.73,-32.13,-32.97,0,*5E
1514326051.28,10295,9.44,72602.3,-8.71,-32.07,-32.75,0,*54
1514326052.54,10296,9.44,72602.0,-8.71,-32.19,-32.79,0,*54
1514326053.81,10297,9.44,72596.0,-8.71,-32.07,-32.75,0,*56
1514326055.02,10298,9.44,72600.3,-8.71,-32.23,-32.91,0,*55
1514326056.29,10299,9.44,72602.0,-8.71,-32.07,-32.75,0,*58
1514326057.54,10300,9.44,72600.5,-8.71,-32.01,-32.75,0,*5F
1514326058.83,10301,9.44,72604.3,-8.69,-32.07,-32.79,0,*5D
1514326060.13,10302,9.44,72598.8,-8.73,-32.07,-32.75,0,*59
1514326061.39,10303,9.44,72598.3,-8.71,-32.19,-32.79,0,*59
1514326062.63,10304,9.44,72598.3,-8.71,-32.23,-32.75,0,*5B
1514326063.9,10305,9.44,72602.0,-8.69,-32.01,-32.45,0,*50
1514326065.19,10306,9.44,72598.3,-8.69,-32.19,-32.63,0,*5E
1514326066.45,10307,9.44,72598.5,-8.69,-32.23,-32.79,0,*5D
1514326067.68,10308,9.44,72596.3,-8.67,-32.29,-32.91,0,*50
1514326068.94,10309,9.44,72602.3,-8.69,-32.35,-32.79,0,*54
1514326070.17,10310,9.44,72602.3,-8.67,-32.29,-32.91,0,*59
1514326071.4,10311,9.44,72598.3,-8.67,-32.35,-32.85,0,*50
1514326072.66,10312,9.44,72600.5,-8.69,-32.39,-32.97,0,*52
1514326073.95,10313,9.44,72602.3,-8.69,-32.19,-32.79,0,*51
1514326075.19,10314,9.44,72600.8,-8.69,-32.23,-32.91,0,*59
1514326076.39,10315,9.44,72598.5,-8.67,-32.35,-32.91,0,*51
1514326077.68,10316,9.44,72598.8,-8.69,-32.45,-33.09,0,*5B
1514326078.89,10317,9.44,72604.3,-8.67,-32.35,-32.91,0,*53
1514326080.15,10318,9.44,72604.5,-8.69,-32.57,-33.09,0,*56
1514326081.35,10319,9.44,72598.5,-8.67,-32.35,-33.03,0,*57
1514326082.56,10320,9.44,72598.3,-8.67,-32.39,-33.03,0,*51
1514326083.8,10321,9.44,72600.3,-8.69,-32.57,-33.15,0,*51
1514326085.01,10322,9.44,72600.0,-8.67,-32.51,-33.03,0,*5D
1514326086.22,10323,9.44,72602.5,-8.67,-32.39,-32.91,0,*58
1514326087.46,10324,9.44,72600.5,-8.67,-32.39,-32.85,0,*5A
1514326088.67,10325,9.44,72600.3,-8.67,-32.39,-33.03,0,*54
1514326089.93,10326,9.44,72602.5,-8.69,-32.57,-32.97,0,*5D
1514326091.14,10327,9.44,72600.0,-8.67,-32.39,-32.91,0,*5C
1514326092.41,10328,9.44,72604.0,-8.69,-32.45,-32.91,0,*56
1514326093.67,10329,9.44,72598.3,-8.69,-32.57,-33.09,0,*54
1514326094.93,10330,9.44,72596.8,-8.69,-32.63,-33.15,0,*56
1514326096.23,10331,9.44,72600.0,-8.69,-32.79,-33.27,0,*5D
1514326097.49,10332,9.44,72600.5,-8.69,-32.63,-33.15,0,*54
1514326098.72,10333,9.44,72598.5,-8.67,-32.57,-33.09,0,*51
1514326099.94,10334,9.44,72600.3,-8.67,-32.51,-32.91,0,*50
1514326101.22,10335,9.44,72596.8,-8.69,-32.63,-32.97,0,*58
1514326102.49,10336,9.44,72600.5,-8.69,-32.57,-33.09,0,*5A
1514326103.75,10337,9.44,72598.5,-8.69,-32.57,-32.97,0,*5D
1514326104.99,10338,9.44,72598.0,-8.67,-32.69,-33.09,0,*57
1514326106.2,10339,9.44,72600.3,-8.67,-32.69,-33.21,0,*5C
1514326107.49,10340,9.38,72598.3,-8.69,-32.63,-32.97,0,*5A
1514326108.75,10341,9.44,72598.3,-8.69,-32.75,-33.15,0,*57
1514326110.0,10342,9.44,72598.0,-8.67,-32.69,-33.09,0,*5A
1514326111.26,10343,9.44,72602.8,-8.67,-32.85,-33.09,0,*59